View from above orbital plane
|
View from above satellite
|
Ground track
|
The orbit data is extracted from the following two-line orbital elements,
1 31702U 07027B 21103.01639633 0.00000300 00000-0 55254-4 0 08
2 31702 63.3482 109.1061 0433883 18.5561 341.4439 14.18909094 07
Epoch (UTC): | 13 April 2021 00:23:36 |
Eccentricity: | 0.0433883 |
inclination: | 63.3482° |
perigee height: | 516 km |
apogee height: | 1142 km |
right ascension of ascending node: | 109.1061° |
argument of perigee: | 18.5561° |
revolutions per day: | 14.18909094 |
mean anomaly at epoch: | 341.4439° |
orbit number at epoch: | 0 |
The dashed part of the orbit path shows where the satellite is in the earth's shadow,
|
|